Location: Franzen
(48.6167°N, 15.3833°E)
Time: 17:49:58
(UTC+00:00)

Altair - Pass Details

Date: 03 August 2021
Orbit: 1501 x 1682 km, 47.2° (Epoch: 19 September)

Event Time Altitude Azimuth Distance (km) Brightness Sun altitude
Rises 05:15:28 0° 286° (WNW) 4,669 9.5 14.7°
Reaches altitude 10° 05:18:34 10° 283° (WNW) 3,673 9.0 15.2°
Maximum altitude 05:27:30 58° 207° (SSW) 1,711 7.8 16.7°
Drops below altitude 10° 05:36:25 10° 132° (SE) 3,663 10.2 18.2°
Sets 05:39:30 0° 128° (SE) 4,656 10.8 18.7°
